Preview of NWS' New Version of Forecast
This preview is not operational and should not be used for support decisions.
Latest weather observations around

Vicksburg, Vicksburg / Tallulah Regional Airport (KTVR)

Using English Units (Switch to International System of Units)
Date/ Time (CDT) Wind (mph) Vis. (mi) Weather Sky Cond. Temp (°F) Rel. Humidity Wind Chill (°F) Heat Index (°F) Pressure Precip. (in)
Air Dwpt 6 hour Altimeter (inHg) Sea level (inHg) 1 hr 3 hr 6 hr
Max Min
Jun 19 01:53 Calm 6 Fog/Mist CLR 74 72     94%   75 29.87 29.89      
Jun 19 00:53 Calm 8 Clear CLR 74 73     97%   76 29.87 29.89      
Jun 18 23:53 S 3 10 Mostly Clear FEW050 76 73     91%   77 29.88 29.89      
Jun 18 22:53 Calm 10 Partly Cloudy FEW055 SCT075 77 74     90%   79 29.87 29.89      
Jun 18 21:53 Calm 10 Mostly Clear FEW050 78 74     87%   80 29.87 29.88      
Jun 18 20:53 Calm 10 Partly Cloudy FEW050 SCT080 79 74     85%   83 29.85 29.86      
Jun 18 19:53 Calm 10 Clear CLR 82 74     77%   88 29.84 29.85      
Jun 18 18:53 3 10 Clear CLR 86 73     65%   93 29.83 29.85      
Jun 18 17:53 WSW 5 10 Clear CLR 87 72     61%   94 29.83 29.85      
Jun 18 16:53 5 10 Mostly Clear FEW041 88 74     63%   97 29.85 29.86      
Jun 18 15:53 5 10 Mostly Clear FEW045 87 75     68%   97 29.86 29.88      
Jun 18 14:53 6 10 Clear CLR 87 74     65%   95 29.88 29.9      
Jun 18 13:53 Calm 10 Mostly Clear FEW037 85 73     68%   92 29.9 29.92      
Jun 18 12:53 Calm 10 Mostly Clear FEW030 85 74     70%   92 29.93 29.94      
Jun 18 11:53 5 10 Mostly Cloudy SCT028 SCT035 BKN042 85 74     70%   92 29.94 29.96      
Jun 18 10:53 3 10 Mostly Clear FEW040 83 73     72%   89 29.94 29.96      
Jun 18 10:17 5 10 Partly Cloudy SCT017 SCT031 81 74     79%   86 29.93        
Jun 18 09:53 3 10 Mostly Cloudy BKN017 BKN026 79 74     85%   83 29.93 29.95      
Jun 18 09:39 Calm 10 Cloudy BKN017 OVC023 79 74     85%   83 29.93        
Jun 18 08:53 Calm 10 Cloudy OVC012 77 74     90%   79 29.94 29.95      
Jun 18 07:53 Calm 10 Cloudy BKN010 BKN015 OVC024 75 73     94%   77 29.94 29.95      
Jun 18 07:49 3 10 Mostly Cloudy SCT010 BKN015 BKN024 75 73     94%   77 29.93        
Jun 18 07:41 3 10 Mostly Cloudy SCT010 BKN014 BKN022 75 73     94%   77 29.93        
Jun 18 07:34 Calm 10 Mostly Cloudy FEW010 SCT014 BKN021 75 73     94%   77 29.93        
Jun 18 07:07 Calm 10 Partly Cloudy SCT016 74 73     97%   76 29.92        
Jun 18 06:53 Calm 10 Mostly Cloudy BKN016 73 72     96%   75 29.92 29.93     0
Jun 18 06:45 Calm 10 Mostly Cloudy BKN016 73 72     96%   75 29.92        
Jun 18 05:53 Calm 10 Mostly Cloudy FEW014 FEW020 BKN037 73 72     96%   75 29.92 29.93      
Jun 18 05:44 Calm 10 Mostly Cloudy SCT015 SCT020 BKN037 72 72     100%   74 29.92        
Jun 18 05:23 Calm 10 Mostly Cloudy BKN015 BKN065 73 72     96%   75 29.92        
Jun 18 04:53 Calm 9 Partly Cloudy SCT100 73 72     96%   75 29.91 29.93      
Jun 18 03:53 Calm 10 Mostly Cloudy FEW080 BKN095 73 72     96%   75 29.91 29.92 0 0  
Jun 18 02:53 Calm 8 Cloudy BKN060 BKN075 OVC095 74 73     97%   76 29.92 29.93 0    
Jun 18 01:53 Calm 10 Mostly Cloudy FEW018 SCT040 BKN050 74 73     97%   76 29.92 29.94      
Jun 18 00:53 Calm 10 Mostly Cloudy BKN032 BKN080 74 73     97%   76 29.93 29.94     0
Jun 17 23:53 Calm 10 Cloudy OVC100 75 73     94%   77 29.93 29.94      
Jun 17 22:53 Calm 10 Clear CLR 75 73     94%   77 29.93 29.94 0    
Jun 17 21:53 SE 7 10 Partly Cloudy SCT110 75 73     94%   77 29.93 29.95 0 0  
Jun 17 20:53 SE 5 10 Clear CLR 75 73     94%   77 29.92 29.93 0    
Jun 17 19:53 SE 7 10 Clear CLR 76 73     91%   77 29.9 29.92      
Jun 17 18:53 SE 6 10 Clear CLR 79 73     82%   82 29.89 29.91 0   0
Jun 17 17:53 SE 8 10 Clear CLR 78 72     82%   79 29.91 29.92      
Jun 17 16:53 SE 7 10 Clear CLR 78 73     85%   80 29.91 29.93 0    
Jun 17 15:53 ESE 8 10 Clear CLR 76 73     91%   77 29.93 29.94 0 0  
Jun 17 15:11 ESE 6 5 Rain and Fog/Mist SCT060 BKN075 OVC090 73 72     96%   75 29.94   0    
Jun 17 15:00 SE 9 5 Light Rain and Fog/Mist FEW050 SCT070 OVC090 73 71     94%   74 29.96   0    
Jun 17 14:53 SE 11 2.5 Rain and Fog/Mist FEW055 SCT065 OVC085 73 71     94%   74 29.96 29.98 0    
Jun 17 14:42 SE 11 5 Rain and Fog/Mist SCT041 OVC085 73 71     94%   74 29.98   0    
Jun 17 14:33 S 9 6 Light Rain and Fog/Mist FEW015 BKN036 OVC090 73 71     94%   74 29.97   0    
Jun 17 14:26 S 9 2.5 Light Rain and Fog/Mist FEW017 BKN038 OVC090 73 71     94%   74 29.97   0    
Jun 17 14:12 SSW 9 0.75 Heavy Rain and Fog/Mist BKN018 BKN050 OVC100 74 72     94%   75 29.98   0    
Jun 17 14:09 S 16 1.5 Heavy Rain and Fog/Mist SCT018 BKN050 OVC100 76 73     91%   77 29.98   0    
Jun 17 13:53 SE 6 10 Mostly Cloudy SCT090 BKN110 77 72     84%   78 29.94 29.96 0    
Jun 17 13:34 SE 3 10 Light Rain FEW009 FEW048 SCT110 78 73     85%   80 29.94   0    
Jun 17 12:53 SSE 8 8 Light Rain FEW046 SCT055 BKN090 81 75     82%   87 29.96 29.97 0   0
Jun 17 11:53 3 10 Clear CLR 81 74     79%   86 29.97 29.98 0    
Jun 17 11:29 Calm 10 Mostly Clear FEW023 80 72     76%   84 29.98        
Jun 17 10:53 Calm 10 Mostly Cloudy BKN021 BKN026 80 72     76%   84 29.97 29.99      
Jun 17 10:43 SSE 3 10 Partly Cloudy SCT021 SCT026 80 72     76%   84 29.97        
Jun 17 09:53 SSE 7 10 Mostly Cloudy BKN023 BKN037 78 71     79%   79 29.97 29.98   0  
Jun 17 09:27 SE 5 10 Mostly Cloudy BKN022 78 72     82%   79 29.96        
Jun 17 08:53 ENE 3 10 Clear CLR 76 71     85%   77 29.96 29.97      
Jun 17 07:53 Calm 10 Clear CLR 73 70     90%   74 29.95 29.97 0    
Jun 17 06:53 Calm 10 Clear CLR 71 70     96%   72 29.96 29.97      
Jun 17 05:53 SSE 7 10 Clear CLR 71 69     93%   72 29.92 29.93      
Jun 17 04:53 SSE 5 10 Clear CLR 70 69     97%     29.9 29.91      
Jun 17 03:53 SSE 7 10 Clear CLR 69 68     96%     29.9 29.91      
Jun 17 02:53 S 6 10 Clear CLR 69 68     96%     29.91 29.93      
Jun 17 01:53 SSE 7 10 Clear CLR 69 68     96%     29.93 29.94      
Jun 17 00:53 SE 5 10 Clear   70 69     97%     29.97 29.98 0   0
Jun 16 23:53 Calm 10 Cloudy OVC070 70 69     97%     30.01 30.02 0    
Jun 16 22:53 WNW 6 10 Light Rain FEW120 71 69     93%   72 30.01   0    
Jun 16 21:53 S 5 10 Clear CLR 72 69     91%   73 29.94 29.96   0  
Jun 16 20:53 S 7 10 Clear CLR 72 70     93%   73 29.93 29.94      
Jun 16 19:53 S 11 10 Clear CLR 72 70     93%   73 29.94 29.95 0    
Jun 16 18:53 S 5 10 Light Rain CLR 72 70     93%   73 29.95 29.96 0   0
Jun 16 17:53 5 10 Clear CLR 74 72     94%   75 29.95 29.96 0    
Jun 16 16:53 WNW 5 8 Light Rain SCT042 BKN070 73 72     96%   75 29.94 29.96 0    
Jun 16 16:35 NW 7 3 Thunderstorms and Rain and Fog/Mist BKN036 BKN055 73 71     94%   74 29.95   0    
Jun 16 16:33 WNW 5 2.5 Rain and Fog/Mist BKN036 BKN055 72 71     97%   73 29.95   0    
Jun 16 16:22 5 4 Light Rain and Fog/Mist BKN034 OVC055 73 71     94%   74 29.96   0    
Jun 16 16:15 NW 5 3 Rain and Fog/Mist BKN029 OVC055 72 70     93%   73 29.96   0    
Jun 16 16:10 7 1.5 Heavy Rain and Fog/Mist BKN029 BKN049 OVC080 72 70     93%   73 29.96   0    
Jun 16 15:53 WNW 9 2.5 Heavy Rain and Fog/Mist SCT022 BKN070 75 71     88%   76 29.96 29.98 0 0  
Jun 16 15:39 WNW 9 10 Partly Cloudy FEW046 FEW055 SCT075 78 70     76%   79 29.97        
Jun 16 14:53   10 Partly Cloudy SCT046 84 70     63%   88 29.96 29.98      
Jun 16 13:53 S 11 10 Clear CLR 88 74     63%   97 29.95 29.96      
Jun 16 12:53 S 10 10 Mostly Clear FEW036 87 74     65%   95 29.97 29.98      
Jun 16 11:53 S 11 10 Mostly Cloudy FEW030 SCT038 BKN048 86 74     67%   94 29.98 30      
Jun 16 10:53 S 9 10 Partly Cloudy FEW027 SCT035 84 74     72%   91 30 30.01      
Jun 16 10:08 5 10 Mostly Cloudy FEW021 SCT028 BKN037 84 74     72%   91 30.01        
Jun 16 09:53 S 7 10 Mostly Cloudy BKN022 BKN028 84 75     74%   92 30.01 30.02      
Jun 16 08:53 6 10 Cloudy BKN017 OVC023 81 75     82%   87 30.01 30.03      
Jun 16 08:35 S 6 10 Mostly Cloudy BKN015 BKN023 81 75     82%   87 30.01        
Jun 16 07:53 S 7 10 Mostly Clear FEW011 78 75     90%   80 30 30.02      
Jun 16 06:53 S 6 8 Clear CLR 75 73     94%   77 29.98 30      
Jun 16 05:53 S 3 10 Clear CLR 74 72     94%   75 29.98 29.99      
Jun 16 04:53 S 3 10 Clear CLR 74 72     94%   75 29.96 29.98      
Jun 16 03:53 S 5 10 Clear CLR 75 72     90%   76 29.95 29.97      
Jun 16 02:53 S 5 10 Clear CLR 76 72     88%   77 29.95 29.97      
May 14 14:53 SSE 5 10 Mostly Clear FEW055 92 68     46%   96 29.97 29.99      
May 14 09:53 5 10 Clear CLR 84 71     65%   89 30.04 30.06      
May 13 19:53 Calm 10 Clear CLR 79 72     79%   82 29.99 30.01      
May 13 07:53 S 6 7 Clear CLR 73 71     94%   74 30.11 30.13      
May 12 13:53 Calm 10 Partly Cloudy FEW050 SCT060 86 68     55%   89 30.07 30.08      
May 12 02:53 S 5 10 Clear CLR 69 63     81%     30.03 30.05      
May 11 14:53 SSE 11 10 Mostly Clear FEW065 86 60     42%   86 30.03 30.04      
Notice The following observation data may not be complete
Jun 12 04:19   10 Mostly Clear FEW022          %              
Jun 11 12:53 SE 7 10 Mostly Cloudy BKN040 BKN049 84 72     67%   90 30.05 30.06      
Jun 10 22:53 SE 6 10 Clear CLR 72 67     84%   73 30.01 30.02      
Jun 10 16:53 SSE 6 10 Mostly Clear FEW075 85 62     46%   86 29.97 29.98      
Jun 09 18:53 Calm 10 Clear CLR 81 58     45%   81 29.91 29.92      
Jun 09 02:53 Calm 8 Clear CLR 64 63     96%     29.92 29.94      
Jun 08 22:53 NNE 3 10 Clear   67 65     93%     29.94 29.95      
Jun 08 18:53 NNW 3 10 Clear CLR 78 57     48%   78 29.89 29.91      
Jun 07 19:53 NNW 5 10 Clear CLR 75 60     60%   75 29.89 29.91      
Jun 07 07:53 NNE 13 10 Clear CLR 73 66     79%   74 29.86 29.88      
Jun 06 02:53 Calm 10 Light Rain FEW110 73 71     94%   74 29.72 29.74 0